date,time,SUV Intensity [MED/Hr],UV Index,Daily total [MED],Since Last [MED]
22/04/2022,00:07:12,0.000,0.0,0.0,0.0
22/04/2022,00:08:12,-0.000,0.0,0.0,0.0
22/04/2022,00:09:12,0.000,0.0,0.0,0.0
22/04/2022,00:10:12,0.000,0.0,0.0,0.0
22/04/2022,00:11:11,0.000,0.0,0.0,0.0
22/04/2022,00:12:12,0.000,0.0,0.0,0.0
22/04/2022,00:13:12,0.000,0.0,0.0,0.0
22/04/2022,00:14:20,0.000,0.0,0.0,0.0
22/04/2022,00:15:12,0.000,0.0,0.0,0.0
22/04/2022,00:16:12,0.000,0.0,0.0,0.0
22/04/2022,00:17:12,0.000,0.0,0.0,0.0
22/04/2022,00:18:13,0.000,0.0,0.0,0.0
22/04/2022,00:19:12,0.000,0.0,0.0,0.0
22/04/2022,00:20:11,0.000,0.0,0.0,0.0
22/04/2022,00:21:12,0.000,0.0,0.0,0.0
22/04/2022,00:22:12,0.000,0.0,0.0,0.0
22/04/2022,00:23:12,0.000,0.0,0.0,0.0
22/04/2022,00:24:20,0.000,0.0,0.0,0.0
22/04/2022,00:25:12,0.000,0.0,0.0,0.0
22/04/2022,00:26:12,0.000,0.0,0.0,0.0
22/04/2022,00:27:12,0.000,0.0,0.0,0.0
22/04/2022,00:28:12,0.000,0.0,0.0,0.0
22/04/2022,00:29:12,0.000,0.0,0.0,0.0
22/04/2022,00:30:12,0.000,0.0,0.0,0.0
22/04/2022,00:31:12,0.000,0.0,0.0,0.0
22/04/2022,00:32:12,0.000,0.0,0.0,0.0
22/04/2022,00:33:12,0.000,0.0,0.0,0.0
22/04/2022,00:34:12,0.000,0.0,0.0,0.0
22/04/2022,00:35:12,0.000,0.0,0.0,0.0
22/04/2022,00:36:12,0.000,0.0,0.0,0.0
22/04/2022,00:37:20,0.000,0.0,0.0,0.0
22/04/2022,00:38:12,0.000,0.0,0.0,0.0
22/04/2022,00:39:12,0.000,0.0,0.0,0.0
22/04/2022,00:40:12,0.000,0.0,0.0,0.0
22/04/2022,00:41:12,0.000,0.0,0.0,0.0
22/04/2022,00:42:20,0.001,0.0,0.0,0.0
22/04/2022,00:43:12,0.000,0.0,0.0,0.0
22/04/2022,00:44:11,0.000,0.0,0.0,0.0
22/04/2022,00:45:12,0.000,0.0,0.0,0.0
22/04/2022,00:46:12,0.001,0.0,0.0,0.0
22/04/2022,00:47:12,0.000,0.0,0.0,0.0
22/04/2022,00:48:12,0.001,0.0,0.0,0.0
22/04/2022,00:49:12,0.000,0.0,0.0,0.0
22/04/2022,00:50:12,0.000,0.0,0.0,0.0
22/04/2022,00:51:12,0.000,0.0,0.0,0.0
22/04/2022,00:52:12,0.000,0.0,0.0,0.0
22/04/2022,00:53:12,0.000,0.0,0.0,0.0
22/04/2022,00:54:12,0.000,0.0,0.0,0.0
22/04/2022,00:55:12,0.001,0.0,0.0,0.0
22/04/2022,00:56:12,0.000,0.0,0.0,0.0
22/04/2022,00:57:12,0.000,0.0,0.0,0.0
22/04/2022,00:58:12,0.000,0.0,0.0,0.0
22/04/2022,00:59:12,0.000,0.0,0.0,0.0
22/04/2022,01:00:12,0.000,0.0,0.0,0.0
22/04/2022,01:01:20,0.000,0.0,0.0,0.0
22/04/2022,01:02:12,0.000,0.0,0.0,0.0
22/04/2022,01:02:59,0.000,0.0,0.0,0.0
22/04/2022,01:04:12,0.000,0.0,0.0,0.0
22/04/2022,01:05:28,0.000,0.0,0.0,0.0
22/04/2022,01:07:12,0.000,0.0,0.0,0.0
22/04/2022,01:08:20,0.000,0.0,0.0,0.0
22/04/2022,01:09:12,0.000,0.0,0.0,0.0
22/04/2022,01:10:12,0.000,0.0,0.0,0.0
22/04/2022,01:11:20,0.000,0.0,0.0,0.0
22/04/2022,01:12:11,0.000,0.0,0.0,0.0
22/04/2022,01:13:12,0.000,0.0,0.0,0.0
22/04/2022,01:14:12,0.000,0.0,0.0,0.0
22/04/2022,01:15:12,0.000,0.0,0.0,0.0
22/04/2022,01:16:12,0.001,0.0,0.0,0.0
22/04/2022,01:17:12,0.000,0.0,0.0,0.0
22/04/2022,01:18:03,0.000,0.0,0.0,0.0
22/04/2022,01:19:12,0.000,0.0,0.0,0.0
22/04/2022,01:20:21,0.000,0.0,0.0,0.0
22/04/2022,01:22:12,0.000,0.0,0.0,0.0
22/04/2022,01:23:11,0.000,0.0,0.0,0.0
22/04/2022,01:24:12,0.000,0.0,0.0,0.0
22/04/2022,01:25:12,0.000,0.0,0.0,0.0
22/04/2022,01:26:12,0.001,0.0,0.0,0.0
22/04/2022,01:27:12,0.000,0.0,0.0,0.0
22/04/2022,01:28:12,0.000,0.0,0.0,0.0
22/04/2022,01:29:12,0.001,0.0,0.0,0.0
22/04/2022,01:30:12,0.000,0.0,0.0,0.0
22/04/2022,01:31:12,0.000,0.0,0.0,0.0
22/04/2022,01:32:20,0.000,0.0,0.0,0.0
22/04/2022,01:33:12,0.000,0.0,0.0,0.0
22/04/2022,01:34:13,0.000,0.0,0.0,0.0
22/04/2022,01:35:21,0.000,0.0,0.0,0.0
22/04/2022,01:36:12,0.000,0.0,0.0,0.0
22/04/2022,01:37:12,0.000,0.0,0.0,0.0
22/04/2022,01:38:12,0.000,0.0,0.0,0.0
22/04/2022,01:39:20,0.000,0.0,0.0,0.0
22/04/2022,01:40:12,0.000,0.0,0.0,0.0
22/04/2022,01:41:12,0.000,0.0,0.0,0.0
22/04/2022,01:42:12,0.000,0.0,0.0,0.0
22/04/2022,01:43:12,0.000,0.0,0.0,0.0
22/04/2022,01:44:12,0.000,0.0,0.0,0.0
22/04/2022,01:45:21,0.000,0.0,0.0,0.0
22/04/2022,01:46:12,0.000,0.0,0.0,0.0
22/04/2022,01:47:12,0.001,0.0,0.0,0.0
22/04/2022,01:48:12,0.000,0.0,0.0,0.0
22/04/2022,01:49:12,0.000,0.0,0.0,0.0
22/04/2022,01:50:12,0.000,0.0,0.0,0.0
22/04/2022,01:51:12,0.000,0.0,0.0,0.0
22/04/2022,01:52:20,0.000,0.0,0.0,0.0
22/04/2022,01:53:12,0.001,0.0,0.0,0.0
22/04/2022,01:54:13,0.000,0.0,0.0,0.0
22/04/2022,01:55:20,0.000,0.0,0.0,0.0
22/04/2022,01:57:13,0.000,0.0,0.0,0.0
22/04/2022,01:58:12,0.000,0.0,0.0,0.0
22/04/2022,01:59:13,0.000,0.0,0.0,0.0
22/04/2022,02:00:12,0.000,0.0,0.0,0.0
22/04/2022,02:01:12,0.000,0.0,0.0,0.0
22/04/2022,02:02:12,0.000,0.0,0.0,0.0
22/04/2022,02:03:20,0.000,0.0,0.0,0.0
22/04/2022,02:04:14,0.000,0.0,0.0,0.0
22/04/2022,02:05:12,0.000,0.0,0.0,0.0
22/04/2022,02:06:12,0.000,0.0,0.0,0.0
22/04/2022,02:07:12,0.000,0.0,0.0,0.0
22/04/2022,02:08:12,0.000,0.0,0.0,0.0
22/04/2022,02:09:12,0.000,0.0,0.0,0.0
22/04/2022,02:10:12,0.000,0.0,0.0,0.0
22/04/2022,02:11:12,0.000,0.0,0.0,0.0
22/04/2022,02:12:12,0.000,0.0,0.0,0.0
22/04/2022,02:13:12,0.000,0.0,0.0,0.0
22/04/2022,02:14:12,0.000,0.0,0.0,0.0
22/04/2022,02:15:12,0.000,0.0,0.0,0.0
22/04/2022,02:16:20,0.000,0.0,0.0,0.0
22/04/2022,02:17:12,0.000,0.0,0.0,0.0
22/04/2022,02:18:13,0.000,0.0,0.0,0.0
22/04/2022,02:19:12,-0.001,0.0,0.0,0.0
22/04/2022,02:20:12,0.000,0.0,0.0,0.0
22/04/2022,02:21:12,0.000,0.0,0.0,0.0
22/04/2022,02:22:12,0.000,0.0,0.0,0.0
22/04/2022,02:23:13,0.000,0.0,0.0,0.0
22/04/2022,02:24:12,0.000,0.0,0.0,0.0
22/04/2022,02:25:12,0.000,0.0,0.0,0.0
22/04/2022,02:26:21,0.000,0.0,0.0,0.0
22/04/2022,02:28:13,0.000,0.0,0.0,0.0
22/04/2022,02:29:13,0.000,0.0,0.0,0.0
22/04/2022,02:30:12,0.000,0.0,0.0,0.0
22/04/2022,02:31:12,0.000,0.0,0.0,0.0
22/04/2022,02:32:12,0.000,0.0,0.0,0.0
22/04/2022,02:33:13,0.000,0.0,0.0,0.0
22/04/2022,02:34:12,0.000,0.0,0.0,0.0
22/04/2022,02:35:12,0.000,0.0,0.0,0.0
22/04/2022,02:36:21,0.000,0.0,0.0,0.0
22/04/2022,02:37:12,0.000,0.0,0.0,0.0
22/04/2022,02:38:12,0.000,0.0,0.0,0.0
22/04/2022,02:39:12,0.000,0.0,0.0,0.0
22/04/2022,02:40:12,0.000,0.0,0.0,0.0
22/04/2022,02:41:12,0.000,0.0,0.0,0.0
22/04/2022,02:42:12,0.000,0.0,0.0,0.0
22/04/2022,02:43:12,0.000,0.0,0.0,0.0
22/04/2022,02:44:27,0.000,0.0,0.0,0.0
22/04/2022,02:46:14,0.000,0.0,0.0,0.0
22/04/2022,02:47:20,0.000,0.0,0.0,0.0
22/04/2022,02:48:12,0.000,0.0,0.0,0.0
22/04/2022,02:49:12,0.000,0.0,0.0,0.0
22/04/2022,02:50:12,0.000,0.0,0.0,0.0
22/04/2022,02:51:12,0.000,0.0,0.0,0.0
22/04/2022,02:52:14,0.000,0.0,0.0,0.0
22/04/2022,02:53:12,0.000,0.0,0.0,0.0
22/04/2022,02:57:19,0.000,0.0,0.0,0.0
22/04/2022,02:58:12,0.000,0.0,0.0,0.0
22/04/2022,02:59:14,0.000,0.0,0.0,0.0
22/04/2022,03:00:13,0.000,0.0,0.0,0.0
22/04/2022,03:01:21,0.000,0.0,0.0,0.0
22/04/2022,03:02:12,0.000,0.0,0.0,0.0
22/04/2022,03:03:13,0.000,0.0,0.0,0.0
22/04/2022,03:04:12,0.000,0.0,0.0,0.0
22/04/2022,03:05:12,0.000,0.0,0.0,0.0
22/04/2022,03:06:12,0.000,0.0,0.0,0.0
22/04/2022,03:07:12,0.000,0.0,0.0,0.0
22/04/2022,03:08:13,0.001,0.0,0.0,0.0
22/04/2022,03:09:12,0.000,0.0,0.0,0.0
22/04/2022,03:10:12,0.000,0.0,0.0,0.0
22/04/2022,03:11:21,0.000,0.0,0.0,0.0
22/04/2022,03:13:13,0.000,0.0,0.0,0.0
22/04/2022,03:14:12,0.000,0.0,0.0,0.0
22/04/2022,03:15:13,0.000,0.0,0.0,0.0
22/04/2022,03:16:12,0.000,0.0,0.0,0.0
22/04/2022,03:17:12,0.000,0.0,0.0,0.0
22/04/2022,03:18:13,0.000,0.0,0.0,0.0
22/04/2022,03:19:12,0.000,0.0,0.0,0.0
22/04/2022,03:20:12,0.000,0.0,0.0,0.0
22/04/2022,03:21:20,0.000,0.0,0.0,0.0
22/04/2022,03:23:13,0.000,0.0,0.0,0.0
22/04/2022,03:24:12,0.000,0.0,0.0,0.0
22/04/2022,03:25:12,0.000,0.0,0.0,0.0
22/04/2022,03:26:12,0.000,0.0,0.0,0.0
22/04/2022,03:27:12,0.000,0.0,0.0,0.0
22/04/2022,03:28:13,0.000,0.0,0.0,0.0
22/04/2022,03:29:12,0.000,0.0,0.0,0.0
22/04/2022,03:30:12,0.000,0.0,0.0,0.0
22/04/2022,03:31:12,0.000,0.0,0.0,0.0
22/04/2022,03:32:12,0.000,0.0,0.0,0.0
22/04/2022,03:33:12,0.000,0.0,0.0,0.0
22/04/2022,03:34:12,0.000,0.0,0.0,0.0
22/04/2022,03:35:13,0.000,0.0,0.0,0.0
22/04/2022,03:36:12,0.000,0.0,0.0,0.0
22/04/2022,03:37:12,0.000,0.0,0.0,0.0
22/04/2022,03:38:13,0.000,0.0,0.0,0.0
22/04/2022,03:39:20,0.000,0.0,0.0,0.0
22/04/2022,03:40:12,0.000,0.0,0.0,0.0
22/04/2022,03:41:12,0.000,0.0,0.0,0.0
22/04/2022,03:42:12,0.000,0.0,0.0,0.0
22/04/2022,03:43:13,0.000,0.0,0.0,0.0
22/04/2022,03:44:12,0.000,0.0,0.0,0.0
22/04/2022,03:45:12,0.000,0.0,0.0,0.0
22/04/2022,03:46:12,0.000,0.0,0.0,0.0
22/04/2022,03:47:12,0.000,0.0,0.0,0.0
22/04/2022,03:48:12,0.000,0.0,0.0,0.0
22/04/2022,03:49:20,0.000,0.0,0.0,0.0
22/04/2022,03:50:12,0.000,0.0,0.0,0.0
22/04/2022,03:51:12,0.000,0.0,0.0,0.0
22/04/2022,03:52:13,0.000,0.0,0.0,0.0
22/04/2022,03:53:12,0.000,0.0,0.0,0.0
22/04/2022,03:54:12,0.000,0.0,0.0,0.0
22/04/2022,03:55:13,0.000,0.0,0.0,0.0
22/04/2022,03:56:14,0.000,0.0,0.0,0.0
22/04/2022,03:57:12,-0.000,0.0,0.0,0.0
22/04/2022,03:58:12,0.000,0.0,0.0,0.0
22/04/2022,03:59:21,-0.001,0.0,0.0,0.0
22/04/2022,04:01:13,0.000,0.0,0.0,0.0
22/04/2022,04:02:12,0.000,0.0,0.0,0.0
22/04/2022,04:03:21,0.000,0.0,0.0,0.0
22/04/2022,04:04:12,0.000,0.0,0.0,0.0
22/04/2022,04:05:12,0.000,0.0,0.0,0.0
22/04/2022,04:06:12,0.000,0.0,0.0,0.0
22/04/2022,04:07:12,0.000,0.0,0.0,0.0
22/04/2022,04:08:12,0.000,0.0,0.0,0.0
22/04/2022,04:09:12,0.000,0.0,0.0,0.0
22/04/2022,04:10:12,0.000,0.0,0.0,0.0
22/04/2022,04:11:12,0.001,0.0,0.0,0.0
22/04/2022,04:12:12,0.000,0.0,0.0,0.0
22/04/2022,04:13:13,0.000,0.0,0.0,0.0
22/04/2022,04:14:12,0.000,0.0,0.0,0.0
22/04/2022,04:15:12,0.000,0.0,0.0,0.0
22/04/2022,04:16:12,0.000,0.0,0.0,0.0
22/04/2022,04:17:13,0.000,0.0,0.0,0.0
22/04/2022,04:18:12,0.000,0.0,0.0,0.0
22/04/2022,04:19:12,0.000,0.0,0.0,0.0
22/04/2022,04:20:13,0.000,0.0,0.0,0.0
22/04/2022,04:21:12,0.000,0.0,0.0,0.0
22/04/2022,04:22:12,0.000,0.0,0.0,0.0
22/04/2022,04:23:13,0.000,0.0,0.0,0.0
22/04/2022,04:24:21,0.000,0.0,0.0,0.0
22/04/2022,04:25:12,-0.001,0.0,0.0,0.0
22/04/2022,04:26:12,0.000,0.0,0.0,0.0
22/04/2022,04:27:12,0.000,0.0,0.0,0.0
22/04/2022,04:28:13,0.000,0.0,0.0,0.0
22/04/2022,04:29:12,0.000,0.0,0.0,0.0
22/04/2022,04:30:20,0.000,0.0,0.0,0.0
22/04/2022,04:32:13,-0.001,0.0,0.0,0.0
22/04/2022,04:33:12,0.000,0.0,0.0,0.0
22/04/2022,04:34:13,0.000,0.0,0.0,0.0
22/04/2022,04:35:12,0.000,0.0,0.0,0.0
22/04/2022,04:36:12,0.000,0.0,0.0,0.0
22/04/2022,04:37:12,0.000,0.0,0.0,0.0
22/04/2022,04:38:20,0.000,0.0,0.0,0.0
22/04/2022,04:39:11,0.000,0.0,0.0,0.0
22/04/2022,04:40:12,0.000,0.0,0.0,0.0
22/04/2022,04:41:20,0.001,0.0,0.0,0.0
22/04/2022,04:42:12,0.000,0.0,0.0,0.0
22/04/2022,04:43:12,0.000,0.0,0.0,0.0
22/04/2022,04:44:12,0.000,0.0,0.0,0.0
22/04/2022,04:45:13,0.000,0.0,0.0,0.0
22/04/2022,04:46:12,0.000,0.0,0.0,0.0
22/04/2022,04:47:12,0.000,0.0,0.0,0.0
22/04/2022,04:48:12,0.000,0.0,0.0,0.0
22/04/2022,04:49:12,0.000,0.0,0.0,0.0
22/04/2022,04:50:12,0.000,0.0,0.0,0.0
22/04/2022,04:51:13,0.000,0.0,0.0,0.0
22/04/2022,04:52:12,0.000,0.0,0.0,0.0
22/04/2022,04:53:12,0.000,0.0,0.0,0.0
22/04/2022,04:54:12,0.000,0.0,0.0,0.0
22/04/2022,04:55:12,0.001,0.0,0.0,0.0
22/04/2022,04:56:12,0.000,0.0,0.0,0.0
22/04/2022,04:57:12,0.000,0.0,0.0,0.0
22/04/2022,04:58:13,0.000,0.0,0.0,0.0
22/04/2022,04:59:12,0.000,0.0,0.0,0.0
22/04/2022,05:00:12,0.000,0.0,0.0,0.0
22/04/2022,05:01:12,0.001,0.0,0.0,0.0
22/04/2022,05:02:12,0.001,0.0,0.0,0.0
22/04/2022,05:03:12,0.001,0.0,0.0,0.0
22/04/2022,05:04:13,0.001,0.0,0.0,0.0
22/04/2022,05:05:12,0.002,0.0,0.0,0.0
22/04/2022,05:06:13,0.000,0.0,0.0,0.0
22/04/2022,05:07:12,0.001,0.0,0.0,0.0
22/04/2022,05:08:13,0.000,0.0,0.0,0.0
22/04/2022,05:09:12,0.001,0.0,0.0,0.0
22/04/2022,05:10:12,0.000,0.0,0.0,0.0
22/04/2022,05:11:12,0.002,0.0,0.0,0.0
22/04/2022,05:12:20,0.001,0.0,0.0,0.0
22/04/2022,05:14:21,0.002,0.0,0.0,0.0
22/04/2022,05:16:13,0.003,0.0,0.0,0.0
22/04/2022,05:17:13,0.003,0.0,0.0,0.0
22/04/2022,05:18:13,0.001,0.0,0.0,0.0
22/04/2022,05:19:12,0.003,0.0,0.0,0.0
22/04/2022,05:20:13,0.003,0.0,0.0,0.0
22/04/2022,05:21:12,0.003,0.0,0.0,0.0
22/04/2022,05:22:12,0.003,0.0,0.0,0.0
22/04/2022,05:23:12,0.003,0.0,0.0,0.0
22/04/2022,05:24:12,0.003,0.0,0.0,0.0
22/04/2022,05:25:13,0.003,0.0,0.0,0.0
22/04/2022,05:26:12,0.004,0.0,0.0,0.0
22/04/2022,05:27:20,0.004,0.0,0.0,0.0
22/04/2022,05:28:13,0.004,0.0,0.0,0.0
22/04/2022,05:29:12,0.004,0.0,0.0,0.0
22/04/2022,05:30:21,0.004,0.0,0.0,0.0
22/04/2022,05:32:13,0.005,0.0,0.0,0.0
22/04/2022,05:33:13,0.005,0.0,0.0,0.0
22/04/2022,05:34:12,0.004,0.0,0.0,0.0
22/04/2022,05:35:12,0.004,0.0,0.0,0.0
22/04/2022,05:36:12,0.004,0.0,0.0,0.0
22/04/2022,05:37:13,0.004,0.0,0.0,0.0
22/04/2022,05:38:21,0.004,0.0,0.0,0.0
22/04/2022,05:39:12,0.004,0.0,0.0,0.0
22/04/2022,05:40:12,0.004,0.0,0.0,0.0
22/04/2022,05:41:20,0.004,0.0,0.0,0.0
22/04/2022,05:42:11,0.004,0.0,0.0,0.0
22/04/2022,05:43:12,0.003,0.0,0.0,0.0
22/04/2022,05:44:13,0.004,0.0,0.0,0.0
22/04/2022,05:45:14,0.004,0.0,0.0,0.0
22/04/2022,05:46:12,0.004,0.0,0.0,0.0
22/04/2022,05:47:12,0.003,0.0,0.0,0.0
22/04/2022,05:48:21,0.004,0.0,0.0,0.0
22/04/2022,05:49:12,0.006,0.0,0.0,0.0
22/04/2022,05:50:13,0.006,0.0,0.0,0.0
22/04/2022,05:51:21,0.008,0.0,0.0,0.0
22/04/2022,05:53:04,0.009,0.0,0.0,0.0
22/04/2022,05:54:14,0.011,0.0,0.001,0.001
22/04/2022,05:55:12,0.012,0.0,0.001,0.0
22/04/2022,05:56:12,0.013,0.0,0.001,0.0
22/04/2022,05:57:21,0.013,0.0,0.001,0.0
22/04/2022,05:58:12,0.013,0.0,0.001,0.0
22/04/2022,05:59:12,0.016,0.0,0.002,0.001
22/04/2022,06:00:13,0.016,0.0,0.002,0.0
22/04/2022,06:01:12,0.016,0.0,0.002,0.0
22/04/2022,06:02:12,0.014,0.0,0.002,0.0
22/04/2022,06:03:13,0.016,0.0,0.003,0.001
22/04/2022,06:04:13,0.017,0.0,0.003,0.0
22/04/2022,06:05:12,0.017,0.0,0.003,0.0
22/04/2022,06:06:13,0.017,0.0,0.004,0.001
22/04/2022,06:07:12,0.017,0.0,0.004,0.0
22/04/2022,06:08:13,0.019,0.0,0.004,0.0
22/04/2022,06:09:13,0.020,0.0,0.004,0.0
22/04/2022,06:10:12,0.021,0.0,0.005,0.001
22/04/2022,06:11:13,0.023,0.0,0.005,0.0
22/04/2022,06:12:21,0.023,0.0,0.006,0.001
22/04/2022,06:13:12,0.024,0.0,0.006,0.0
22/04/2022,06:14:13,0.027,0.0,0.006,0.0
22/04/2022,06:15:14,0.029,0.0,0.007,0.001
22/04/2022,06:16:13,0.028,0.0,0.007,0.0
22/04/2022,06:17:12,0.025,0.0,0.008,0.001
22/04/2022,06:18:13,0.027,0.0,0.008,0.0
22/04/2022,06:19:13,0.027,0.0,0.009,0.001
22/04/2022,06:20:13,0.023,0.0,0.009,0.0
22/04/2022,06:21:04,0.030,0.0,0.009,0.0
22/04/2022,06:22:13,0.025,0.0,0.01,0.001
22/04/2022,06:23:21,0.027,0.0,0.01,0.0
22/04/2022,06:25:13,0.025,0.0,0.011,0.001
22/04/2022,06:26:12,0.024,0.0,0.012,0.001
22/04/2022,06:27:13,0.023,0.0,0.012,0.0
22/04/2022,06:28:12,0.024,0.0,0.012,0.0
22/04/2022,06:29:12,0.022,0.0,0.013,0.001
22/04/2022,06:30:13,0.018,0.0,0.013,0.0
22/04/2022,06:31:13,0.019,0.0,0.013,0.0
22/04/2022,06:32:12,0.019,0.0,0.014,0.001
22/04/2022,06:33:12,0.021,0.0,0.014,0.0
22/04/2022,06:34:13,0.021,0.0,0.014,0.0
22/04/2022,06:35:12,0.023,0.0,0.015,0.001
22/04/2022,06:36:13,0.025,0.0,0.015,0.0
22/04/2022,06:37:21,0.024,0.0,0.016,0.001
22/04/2022,06:39:13,0.026,0.0,0.016,0.0
22/04/2022,06:40:13,0.030,0.0,0.017,0.001
22/04/2022,06:41:13,0.034,0.0,0.017,0.0
22/04/2022,06:42:13,0.038,0.0,0.018,0.001
22/04/2022,06:43:12,0.034,0.0,0.019,0.001
22/04/2022,06:44:12,0.031,0.0,0.019,0.0
22/04/2022,06:45:13,0.035,0.0,0.02,0.001
22/04/2022,06:46:12,0.041,0.0,0.02,0.0
22/04/2022,06:47:21,0.052,0.0,0.021,0.001
22/04/2022,06:48:21,0.046,0.0,0.022,0.001
22/04/2022,06:49:12,0.047,0.0,0.023,0.001
22/04/2022,06:50:12,0.049,0.0,0.024,0.001
22/04/2022,06:51:13,0.053,0.0,0.024,0.0
22/04/2022,06:52:12,0.062,0.0,0.025,0.001
22/04/2022,06:53:13,0.063,0.0,0.026,0.001
22/04/2022,06:54:13,0.069,0.0,0.027,0.001
22/04/2022,06:55:12,0.077,0.0,0.029,0.002
22/04/2022,06:56:13,0.064,0.0,0.03,0.001
22/04/2022,06:57:13,0.057,0.0,0.031,0.001
22/04/2022,06:58:21,0.055,0.0,0.032,0.001
22/04/2022,06:59:12,0.061,0.0,0.033,0.001
22/04/2022,07:00:12,0.070,0.0,0.034,0.001
22/04/2022,07:01:21,0.067,0.0,0.035,0.001
22/04/2022,07:02:12,0.070,0.0,0.036,0.001
22/04/2022,07:03:12,0.070,0.0,0.037,0.001
22/04/2022,07:04:12,0.077,0.0,0.039,0.002
22/04/2022,07:05:13,0.078,0.0,0.04,0.001
22/04/2022,07:06:13,0.065,0.0,0.041,0.001
22/04/2022,07:07:12,0.070,0.0,0.042,0.001
22/04/2022,07:08:13,0.082,0.0,0.043,0.001
22/04/2022,07:09:12,0.086,0.0,0.045,0.002
22/04/2022,07:10:13,0.089,0.0,0.046,0.001
22/04/2022,07:11:13,0.084,0.0,0.048,0.002
22/04/2022,07:12:12,0.089,0.0,0.049,0.001
22/04/2022,07:13:13,0.088,0.0,0.051,0.002
22/04/2022,07:14:13,0.085,0.0,0.052,0.001
22/04/2022,07:15:13,0.081,0.0,0.054,0.002
22/04/2022,07:16:13,0.092,0.0,0.055,0.001
22/04/2022,07:17:13,0.094,0.0,0.057,0.002
22/04/2022,07:18:13,0.084,0.0,0.058,0.001
22/04/2022,07:19:14,0.083,0.0,0.059,0.001
22/04/2022,07:20:21,0.075,0.0,0.061,0.002
22/04/2022,07:22:13,0.095,0.0,0.064,0.003
22/04/2022,07:23:13,0.092,0.0,0.065,0.001
22/04/2022,07:24:21,0.082,0.0,0.067,0.002
22/04/2022,07:26:13,0.090,0.0,0.069,0.002
22/04/2022,07:27:12,0.085,0.0,0.071,0.002
22/04/2022,07:28:12,0.089,0.0,0.072,0.001
22/04/2022,07:29:13,0.095,0.0,0.074,0.002
22/04/2022,07:30:13,0.098,0.0,0.075,0.001
22/04/2022,07:31:13,0.098,0.0,0.077,0.002
22/04/2022,07:32:12,0.117,0.0,0.079,0.002
22/04/2022,07:33:13,0.118,0.0,0.081,0.002
22/04/2022,07:34:13,0.117,0.0,0.083,0.002
22/04/2022,07:35:13,0.135,0.0,0.085,0.002
22/04/2022,07:36:21,0.146,0.0,0.088,0.003
22/04/2022,07:37:12,0.127,0.0,0.09,0.002
22/04/2022,07:38:13,0.138,0.0,0.092,0.002
22/04/2022,07:39:13,0.130,0.0,0.094,0.002
22/04/2022,07:40:13,0.135,0.0,0.096,0.002
22/04/2022,07:41:13,0.136,0.0,0.099,0.003
22/04/2022,07:42:13,0.147,0.0,0.101,0.002
22/04/2022,07:43:13,0.149,0.0,0.103,0.002
22/04/2022,07:44:21,0.136,0.0,0.106,0.003
22/04/2022,07:46:13,0.119,0.0,0.11,0.004
22/04/2022,07:47:13,0.106,0.0,0.112,0.002
22/04/2022,07:48:13,0.095,0.0,0.114,0.002
22/04/2022,07:49:13,0.109,0.0,0.115,0.001
22/04/2022,07:50:13,0.097,0.0,0.117,0.002
22/04/2022,07:51:12,0.086,0.0,0.119,0.002
22/04/2022,07:52:12,0.111,0.0,0.12,0.001
22/04/2022,07:53:13,0.120,0.0,0.122,0.002
22/04/2022,07:54:21,0.134,0.0,0.124,0.002
22/04/2022,07:55:13,0.131,0.0,0.126,0.002
22/04/2022,07:56:13,0.127,0.0,0.128,0.002
22/04/2022,07:57:13,0.146,0.0,0.131,0.003
22/04/2022,07:58:13,0.125,0.0,0.133,0.002
22/04/2022,07:59:13,0.127,0.0,0.135,0.002
22/04/2022,08:00:13,0.123,0.0,0.137,0.002
22/04/2022,08:01:12,0.119,0.0,0.139,0.002
22/04/2022,08:02:13,0.103,0.0,0.141,0.002
22/04/2022,08:03:12,0.086,0.0,0.143,0.002
22/04/2022,08:04:12,0.122,0.0,0.144,0.001
22/04/2022,08:05:29,0.124,0.0,0.147,0.003
22/04/2022,08:07:13,0.100,0.0,0.15,0.003
22/04/2022,08:08:21,0.129,0.0,0.152,0.002
22/04/2022,08:10:13,0.160,0.0,0.157,0.005
22/04/2022,08:11:12,0.139,0.0,0.159,0.002
22/04/2022,08:12:13,0.144,0.0,0.162,0.003
22/04/2022,08:14:13,0.161,0.0,0.167,0.005
22/04/2022,08:15:13,0.141,0.0,0.169,0.002
22/04/2022,08:16:13,0.154,0.0,0.172,0.003
22/04/2022,08:17:13,0.197,0.0,0.175,0.003
22/04/2022,08:18:21,0.244,1.0,0.179,0.004
22/04/2022,08:19:21,0.260,1.0,0.183,0.004
22/04/2022,08:20:12,0.254,1.0,0.187,0.004
22/04/2022,08:21:13,0.222,1.0,0.191,0.004
22/04/2022,08:22:13,0.185,0.0,0.194,0.003
22/04/2022,08:23:13,0.175,0.0,0.197,0.003
22/04/2022,08:24:13,0.195,0.0,0.2,0.003
22/04/2022,08:25:12,0.215,0.0,0.204,0.004
22/04/2022,08:26:21,0.293,1.0,0.209,0.005
22/04/2022,08:27:14,0.331,1.0,0.213,0.004
22/04/2022,08:28:13,0.327,1.0,0.219,0.006
22/04/2022,08:29:12,0.315,1.0,0.224,0.005
22/04/2022,08:30:13,0.301,1.0,0.229,0.005
22/04/2022,08:31:13,0.349,1.0,0.234,0.005
22/04/2022,08:32:13,0.335,1.0,0.24,0.006
22/04/2022,08:33:13,0.305,1.0,0.246,0.006
22/04/2022,08:34:13,0.283,1.0,0.251,0.005
22/04/2022,08:35:13,0.301,1.0,0.255,0.004
22/04/2022,08:36:13,0.316,1.0,0.26,0.005
22/04/2022,08:37:12,0.325,1.0,0.266,0.006
22/04/2022,08:38:12,0.325,1.0,0.271,0.005
22/04/2022,08:39:21,0.316,1.0,0.278,0.007
22/04/2022,08:41:15,0.286,1.0,0.286,0.008
22/04/2022,08:42:13,0.292,1.0,0.291,0.005
22/04/2022,08:43:13,0.237,1.0,0.295,0.004
22/04/2022,08:44:12,0.268,1.0,0.299,0.004
22/04/2022,08:45:13,0.325,1.0,0.304,0.005
22/04/2022,08:46:13,0.345,1.0,0.31,0.006
22/04/2022,08:47:21,0.335,1.0,0.317,0.007
22/04/2022,08:48:13,0.323,1.0,0.321,0.004
22/04/2022,08:49:13,0.313,1.0,0.326,0.005
22/04/2022,08:50:13,0.308,1.0,0.332,0.006
22/04/2022,08:51:13,0.290,1.0,0.337,0.005
22/04/2022,08:52:13,0.288,1.0,0.341,0.004
22/04/2022,08:53:13,0.289,1.0,0.346,0.005
22/04/2022,08:54:13,0.288,1.0,0.351,0.005
22/04/2022,08:55:13,0.296,1.0,0.356,0.005
22/04/2022,08:56:15,0.299,1.0,0.361,0.005
22/04/2022,08:57:21,0.281,1.0,0.366,0.005
22/04/2022,08:58:13,0.288,1.0,0.37,0.004
22/04/2022,08:59:12,0.319,1.0,0.375,0.005
22/04/2022,09:00:21,0.347,1.0,0.382,0.007
22/04/2022,09:02:13,0.353,1.0,0.393,0.011
22/04/2022,09:03:13,0.359,1.0,0.399,0.006
22/04/2022,09:04:13,0.372,1.0,0.405,0.006
22/04/2022,09:05:13,0.391,1.0,0.411,0.006
22/04/2022,09:06:14,0.388,1.0,0.418,0.007
22/04/2022,09:07:13,0.369,1.0,0.424,0.006
22/04/2022,09:08:12,0.350,1.0,0.43,0.006
22/04/2022,09:09:12,0.347,1.0,0.436,0.006
22/04/2022,09:10:13,0.379,1.0,0.442,0.006
22/04/2022,09:11:21,0.385,1.0,0.449,0.007
22/04/2022,09:12:13,0.313,1.0,0.454,0.005
22/04/2022,09:13:12,0.271,1.0,0.459,0.005
22/04/2022,09:14:13,0.357,1.0,0.464,0.005
22/04/2022,09:15:13,0.336,1.0,0.47,0.006
22/04/2022,09:16:13,0.269,1.0,0.475,0.005
22/04/2022,09:17:13,0.277,1.0,0.48,0.005
22/04/2022,09:18:13,0.218,1.0,0.484,0.004
22/04/2022,09:19:13,0.148,0.0,0.487,0.003
22/04/2022,09:20:13,0.114,0.0,0.489,0.002
22/04/2022,09:21:21,0.115,0.0,0.491,0.002
22/04/2022,09:22:12,0.131,0.0,0.493,0.002
22/04/2022,09:23:13,0.154,0.0,0.495,0.002
22/04/2022,09:24:13,0.164,0.0,0.498,0.003
22/04/2022,09:25:13,0.150,0.0,0.501,0.003
22/04/2022,09:26:13,0.132,0.0,0.503,0.002
22/04/2022,09:27:13,0.115,0.0,0.505,0.002
22/04/2022,09:28:13,0.133,0.0,0.507,0.002
22/04/2022,09:29:13,0.192,0.0,0.51,0.003
22/04/2022,09:30:13,0.215,0.0,0.513,0.003
22/04/2022,09:31:13,0.223,1.0,0.517,0.004
22/04/2022,09:32:21,0.237,1.0,0.521,0.004
22/04/2022,09:34:14,0.219,1.0,0.529,0.008
22/04/2022,09:35:13,0.168,0.0,0.532,0.003
22/04/2022,09:36:13,0.191,0.0,0.535,0.003
22/04/2022,09:37:12,0.244,1.0,0.538,0.003
22/04/2022,09:38:13,0.201,0.0,0.542,0.004
22/04/2022,09:39:13,0.194,0.0,0.545,0.003
22/04/2022,09:40:13,0.204,0.0,0.549,0.004
22/04/2022,09:41:13,0.219,1.0,0.552,0.003
22/04/2022,09:42:13,0.234,1.0,0.556,0.004
22/04/2022,09:43:13,0.201,0.0,0.56,0.004
22/04/2022,09:44:13,0.166,0.0,0.563,0.003
22/04/2022,09:45:13,0.160,0.0,0.566,0.003
22/04/2022,09:46:13,0.176,0.0,0.568,0.002
22/04/2022,09:47:13,0.182,0.0,0.571,0.003
22/04/2022,09:48:04,0.178,0.0,0.574,0.003
22/04/2022,09:49:14,0.185,0.0,0.577,0.003
22/04/2022,09:50:13,0.176,0.0,0.58,0.003
22/04/2022,09:51:13,0.158,0.0,0.583,0.003
22/04/2022,09:52:13,0.148,0.0,0.586,0.003
22/04/2022,09:53:12,0.150,0.0,0.588,0.002
22/04/2022,09:54:13,0.147,0.0,0.591,0.003
22/04/2022,09:55:13,0.138,0.0,0.593,0.002
22/04/2022,09:56:13,0.142,0.0,0.595,0.002
22/04/2022,09:57:13,0.144,0.0,0.598,0.003
22/04/2022,09:58:13,0.145,0.0,0.6,0.002
22/04/2022,09:59:21,0.140,0.0,0.603,0.003
22/04/2022,10:01:13,0.154,0.0,0.607,0.004
22/04/2022,10:02:13,0.159,0.0,0.61,0.003
22/04/2022,10:03:13,0.144,0.0,0.612,0.002
22/04/2022,10:04:12,0.127,0.0,0.615,0.003
22/04/2022,10:05:13,0.118,0.0,0.617,0.002
22/04/2022,10:06:13,0.108,0.0,0.619,0.002
22/04/2022,10:07:13,0.110,0.0,0.62,0.001
22/04/2022,10:08:13,0.106,0.0,0.622,0.002
22/04/2022,10:09:21,0.094,0.0,0.624,0.002
22/04/2022,10:11:13,0.086,0.0,0.627,0.003
22/04/2022,10:12:13,0.091,0.0,0.628,0.001
22/04/2022,10:13:13,0.106,0.0,0.63,0.002
22/04/2022,10:14:12,0.112,0.0,0.632,0.002
22/04/2022,10:15:13,0.115,0.0,0.634,0.002
22/04/2022,10:16:12,0.145,0.0,0.636,0.002
22/04/2022,10:17:12,0.195,0.0,0.638,0.002
22/04/2022,10:18:13,0.243,1.0,0.642,0.004
22/04/2022,10:19:13,0.278,1.0,0.646,0.004
22/04/2022,10:20:21,0.308,1.0,0.652,0.006
22/04/2022,10:21:12,0.305,1.0,0.656,0.004
22/04/2022,10:22:13,0.286,1.0,0.661,0.005
22/04/2022,10:23:15,0.317,1.0,0.666,0.005
22/04/2022,10:24:13,0.335,1.0,0.672,0.006
22/04/2022,10:25:13,0.305,1.0,0.677,0.005
22/04/2022,10:26:21,0.257,1.0,0.683,0.006
22/04/2022,10:28:14,0.257,1.0,0.691,0.008
22/04/2022,10:29:13,0.226,1.0,0.695,0.004
22/04/2022,10:30:21,0.187,0.0,0.698,0.003
22/04/2022,10:31:12,0.184,0.0,0.701,0.003
22/04/2022,10:32:14,0.174,0.0,0.704,0.003
22/04/2022,10:33:12,0.178,0.0,0.707,0.003
22/04/2022,10:34:13,0.156,0.0,0.71,0.003
22/04/2022,10:35:13,0.115,0.0,0.712,0.002
22/04/2022,10:36:13,0.094,0.0,0.714,0.002
22/04/2022,10:37:13,0.081,0.0,0.715,0.001
22/04/2022,10:38:13,0.087,0.0,0.717,0.002
22/04/2022,10:39:13,0.089,0.0,0.718,0.001